STARLINK-2150, 47739

Orbit data source: Space-Track

STARLINK-2150, 47739 is a payload satellite owned by SpaceX/Seattle (US) in LEO that was launched on Thu, 04 Mar 2021 UTC via an FALCON 9 launch vehicle from the Air Force Eastern Test Range (AFETR). Payload-class satellites include a variety of spacecraft equipped with specific instruments for various scientific and technological missions. These include communications satellites like Starlink; space stations such as the ISS; scientific satellites like the Hubble; Earth observation satellites from companies like Planet Labs, Umbra, and HawkEye 360; GPS; miniature CubeSats for education and research; and military/defense satellites.

Loading next visibility...
Identifier
47739, 2021-017T
Orbit
LEO
Country
Flag of USUS
Related business
Manufacturer
SpaceX/Seattle
Mission
Operational Commercial Communications
Bus & Motor
STARLINK, Unknown motor
Mass
260 kg wet, ~248 kg dry
Launch date (UTC)
2021-03-04 (5 years ago)
Launch vehicle
FALCON 9
Launch site
Air Force Eastern Test Range (AFETR)
Object type
Payload
Rocket body
Debris
Shape & HBR
Box + 1 Pan, 10.1 m
Radar Cross Section
13.562 m², Large (>1 m²)

Expand to show TLE details & history
Last TLE update: 2 days ago

TLE from 2 days ago
0 STARLINK-2150
1 47739U 21017T   26170.96233401  .00000240  00000-0  19484-4 0  9991
2 47739  53.1586 103.4164 0001199  84.5945 275.5193 15.31702672293352
Epoch: 2026-06-19T23:05Z
TLE epoch observation values (Epoch: 2026-06-19T23:05:45.658Z)
Latitude
-0.00003°
Longitude
-151.20765°
Altitude
471.553 km
Speed
7.632 km/s
True Right ascension
06h 53m 39s
True Declination
0° 00' 00"
Sunlit
Object was in daylight at epoch
Visualization orbit readout
Latitude
Unknown
Longitude
Unknown
Altitude
Unknown
Speed
Unknown
Apparent Right ascension
Unknown
Apparent Declination
Unknown
Sunlit
N/A
Visualization observer readout
Local Sidereal Time
21:37:08
Azimuth
Unknown
Elevation
Unknown
Doppler factor
Unknown
Orbital elements
Apogee altitude
471.81 km
Perigee altitude
470.168 km
Semi-major axis
6,849.126 km
Eccentricity
0.00012
Inclination
53.1586°
RAAN
103.4164°
Arg. of periapsis
84.5945°
True anomaly
275.50562°
Mean anomaly
275.5193°
Eccentric anomaly
275.51246°
Mean motion
3.82904 °/min
Orbital period
94.02 mins
BSTAR
0.000019484
Loading maneuver chart data...
Computing Atmospheric mass density...

Documentation

Showing up to 5 results
|